User: anonymous   Login
Location: Unspecified
(0.0000°N, 0.0000°E)
Time: 16:50:46
(UTC+00:00)
Language:

Envisat - Orbit

View from above orbital plane
View from above orbital plane
View from above satellite
View from above satellite

Ground track
Ground track

The orbit data is extracted from the following two-line orbital elements,

1 27386U 02009A   24207.42689462  .00000331  00000-0  12197-3 0  9993
2 27386  98.2846 167.1916 0001403  84.2076  27.7870 14.38613937174076
Epoch (UTC): 25 July 2024 10:14:43
Eccentricity: 0.0001403
inclination: 98.2846°
perigee height: 762 km
apogee height: 764 km
right ascension of ascending node: 167.1916°
argument of perigee: 84.2076°
revolutions per day: 14.38613937
mean anomaly at epoch: 27.7870°
orbit number at epoch: 17407

The dashed part of the orbit path shows where the satellite is in the earth's shadow,  

DLR